Location: Cactus School
(34.5700°N, 118.0931°W)
Time: 08:58:04
(UTC-07:00)

S-56A Canister/Altair - Pass Details

Date: 14 April 2024
Orbit: 638 x 2488 km, 38.9° (Epoch: 29 May)

Event Time Altitude Azimuth Distance (km) Brightness Sun altitude
Rises 03:49:07 0° 280° (W) 5,737 - -29.2°
Reaches altitude 10° 03:54:36 10° 263° (W) 4,955 - -28.3°
Maximum altitude 04:02:42 17° 229° (SW) 4,515 - -26.9°
Drops below altitude 10° 04:11:05 10° 194° (SSW) 5,099 - -25.5°
Exits shadow 04:13:26 - 187° (S) 5,410 11.5 -25.1°
Sets 04:17:00 0° 177° (S) 5,962 11.8 -24.5°
